Waarnemingen

Advertentie
Mijn weer
Kvarn, Zweden (2561): temperatuur & dauwpunt: 16.06.2018 09:00:00 - 22.06.2018 09:00:00 (CEST)Kvarn, Zweden (2561): windsnelheid & windstoten: 16.06.2018 09:00:00 - 22.06.2018 09:00:00 (CEST)Kvarn, Zweden (2561): windrichting: 16.06.2018 09:00:00 - 22.06.2018 09:00:00 (CEST)Kvarn, Zweden (2561): luchtdruk: 16.06.2018 09:00:00 - 22.06.2018 09:00:00 (CEST)Kvarn, Zweden (2561): zicht: 16.06.2018 09:00:00 - 22.06.2018 09:00:00 (CEST)Kvarn, Zweden (2561): neerslag: 16.06.2018 09:00:00 - 22.06.2018 09:00:00 (CEST)
Datum & Tijd tt [°C] td [°C] ff [km/u] ff [kn] fx [km/u] fx [kn] dd ppp [hPa] vv [km] rr [mm]
22.06.2018 09:00:00 11,1 7,2 14 8 25 14 WNW 1002,7 45 0,0
22.06.2018 08:00:00 9,1 7,5 11 6 22 12 WNW 1002,1 45 0,1
22.06.2018 07:00:00 8,3 7,9 11 6 25 14 WNW 1001,7 45 0,2
22.06.2018 06:00:00 8,5 8,1 11 6 25 14 WNW 1001,1 35 0,3
22.06.2018 05:00:00 8,9 8,4 11 6 25 14 NW 1000,4 40 0,2
22.06.2018 04:00:00 9,4 8,9 11 6 25 14 WNW 999,5 45 0,1
22.06.2018 03:00:00 9,0 9,0 7 4 18 10 W 999,4 45 0,3
22.06.2018 02:00:00 8,6 8,6 7 4 18 10 WNW 999,9 35 0,1
22.06.2018 01:00:00 8,6 8,6 7 4 18 10 WNW 1000,3 28 0,3
22.06.2018 00:00:00 8,5 8,5 7 4 22 12 WNW 1000,0 28 0,5
21.06.2018 23:00:00 8,4 8,4 7 4 18 10 WNW 999,9 21 0,4
21.06.2018 22:00:00 8,5 8,4 7 4 18 10 NW 999,8 23 0,3
21.06.2018 21:00:00 9,0 9,0 7 4 14 8 WNW 999,5 35 0,4
21.06.2018 20:00:00 9,2 9,2 7 4 18 10 WNW 999,6 19 0,6
21.06.2018 19:00:00 9,8 9,3 7 4 25 14 NW 999,6 27 0,4
21.06.2018 18:00:00 10,6 10,1 7 4 22 12 NW 999,3 50 0,1
21.06.2018 17:00:00 11,5 10,6 11 6 18 10 NNW 999,4 40 0,0
21.06.2018 16:00:00 12,2 10,8 11 6 18 10 NNW 999,3 40 0,0
21.06.2018 15:00:00 12,0 11,5 7 4 22 12 NW 999,7 35 0,0
21.06.2018 14:00:00 12,2 12,0 11 6 18 10 W 999,8 40 0,8
21.06.2018 13:00:00 12,6 12,4 7 4 25 14 WZW 999,8 12 1,0
21.06.2018 12:00:00 12,9 12,6 7 4 22 12 ZZW 999,7 29 0,2
21.06.2018 11:00:00 14,1 13,3 7 4 22 12 ZW 1000,1 40 0,0
21.06.2018 10:00:00 13,5 13,3 4 2 18 10 ZZW 1000,5 35 0,0
21.06.2018 09:00:00 12,9 12,7 11 6 22 12 ZW 1000,9 14 0,0
21.06.2018 08:00:00 12,5 12,5 7 4 18 10 ZW 1001,3 25 0,0
21.06.2018 07:00:00 12,4 12,4 4 2 7 4 ZZW 1001,8 25 0,1
21.06.2018 06:00:00 11,6 11,6 0 0 4 2 N 1002,2 14 1,0
21.06.2018 05:00:00 11,2 11,2 4 2 4 2 ZO 1002,8 5 1,0
21.06.2018 04:00:00 11,0 11,0 0 0 4 2 N 1003,4 6 0,8
21.06.2018 03:00:00 11,0 11,0 0 0 7 4 N 1004,1 7 1,0
21.06.2018 02:00:00 11,0 11,0 4 2 7 4 NW 1004,9 9 3,0
21.06.2018 01:00:00 10,8 10,8 0 0 4 2 N 1005,5 1,7 3,0
21.06.2018 00:00:00 10,4 10,4 0 0 4 2 N 1006,5 7 0,2
20.06.2018 23:00:00 10,2 10,2 0 0 4 2 N 1007,4 13 0,0
20.06.2018 22:00:00 10,4 10,4 0 0 4 2 N 1008,0 22 0,0
20.06.2018 21:00:00 10,5 10,5 0 0 4 2 N 1008,2 25 0,0
20.06.2018 20:00:00 10,4 10,4 0 0 4 2 N 1008,6 22 0,0
20.06.2018 19:00:00 10,1 10,1 4 2 11 6 O 1008,9 7 0,6
20.06.2018 18:00:00 10,1 10,1 0 0 7 4 N 1009,0 8 2,0
20.06.2018 17:00:00 10,3 10,1 4 2 7 4 O 1010,4 13 0,4
20.06.2018 16:00:00 10,3 9,8 0 0 18 10 N 1011,9 15 0,8
20.06.2018 15:00:00 12,5 8,2 11 6 29 16 ZW 1012,5 - 0,2
20.06.2018 14:00:00 14,7 6,5 11 6 36 19 ZW 1012,7 40 0,0
20.06.2018 13:00:00 15,4 6,9 14 8 32 18 ZW 1013,1 35 0,0
20.06.2018 12:00:00 14,9 7,4 7 4 29 16 WZW 1013,5 24 0,0
20.06.2018 11:00:00 15,2 7,0 14 8 29 16 WZW 1013,6 30 0,0
20.06.2018 10:00:00 15,1 7,4 11 6 32 18 W 1013,2 27 0,0
20.06.2018 09:00:00 14,2 7,7 14 8 32 18 W 1013,9 30 0,0
20.06.2018 08:00:00 13,4 7,8 11 6 32 18 WZW 1013,6 30 0,0
20.06.2018 07:00:00 12,3 8,0 14 8 25 14 W 1014,0 30 0,0
20.06.2018 06:00:00 11,5 8,5 7 4 22 12 WZW 1013,6 25 0,0
20.06.2018 05:00:00 10,9 8,1 7 4 25 14 WZW 1013,4 27 0,0
20.06.2018 04:00:00 10,9 8,1 7 4 25 14 ZW 1013,1 24 0,0
20.06.2018 03:00:00 10,9 8,1 11 6 29 16 ZW 1012,7 26 0,0
20.06.2018 02:00:00 11,3 7,2 7 4 29 16 ZW 1012,3 29 0,0
20.06.2018 01:00:00 11,7 7,4 11 6 29 16 WZW 1012,0 29 0,0
20.06.2018 00:00:00 12,1 7,6 11 6 29 16 ZW 1012,0 30 0,0
19.06.2018 23:00:00 12,8 7,5 14 8 32 18 ZW 1011,9 30 0,0
19.06.2018 22:00:00 13,1 7,3 11 6 29 16 ZW 1011,7 35 0,0
19.06.2018 21:00:00 14,6 6,9 14 8 36 19 WZW 1011,1 30 0,0
19.06.2018 20:00:00 16,0 6,7 18 10 36 19 WZW 1010,3 29 0,0
19.06.2018 19:00:00 17,2 6,1 18 10 43 23 WZW 1010,2 30 0,0
19.06.2018 18:00:00 17,7 6,2 18 10 43 23 WZW 1009,4 35 0,0
19.06.2018 17:00:00 18,9 5,7 18 10 43 23 W 1008,8 35 0,0
19.06.2018 16:00:00 19,1 4,4 22 12 43 23 WZW 1008,3 30 0,0
19.06.2018 15:00:00 19,0 4,7 22 12 47 25 W 1007,9 30 0,0
19.06.2018 14:00:00 18,5 5,0 22 12 47 25 W 1007,6 30 0,0
19.06.2018 13:00:00 18,0 5,2 22 12 43 23 W 1007,4 30 0,0
19.06.2018 12:00:00 17,6 7,1 18 10 54 29 W 1006,8 30 0,0
19.06.2018 11:00:00 16,3 10,2 18 10 32 18 WZW 1006,7 30 0,0
19.06.2018 10:00:00 13,1 12,2 11 6 36 19 WZW 1006,7 23 0,9
19.06.2018 09:00:00 13,2 10,6 14 8 32 18 ZW 1006,8 20 0,0
19.06.2018 08:00:00 13,2 9,6 11 6 43 23 ZW 1006,7 28 0,0
19.06.2018 07:00:00 13,4 9,1 18 10 43 23 WZW 1006,9 30 0,0
19.06.2018 06:00:00 13,3 9,2 14 8 36 19 WZW 1006,9 35 0,0
19.06.2018 05:00:00 13,8 11,0 11 6 25 14 W 1007,4 45 0,0
19.06.2018 04:00:00 14,0 12,3 11 6 22 12 ZZW 1007,3 45 0,0
19.06.2018 03:00:00 13,7 13,2 4 2 22 12 Z 1007,6 45 0,0
19.06.2018 02:00:00 14,2 13,8 7 4 29 16 ZZW 1008,3 45 0,1
19.06.2018 01:00:00 14,6 14,0 11 6 25 14 ZZW 1008,9 7 0,1
19.06.2018 00:00:00 15,5 13,0 11 6 25 14 ZZW 1009,6 30 0,0
18.06.2018 23:00:00 15,6 12,5 7 4 25 14 ZZW 1010,1 45 0,0
18.06.2018 22:00:00 16,3 11,2 11 6 22 12 ZZW 1010,7 45 0,0
18.06.2018 21:00:00 16,7 10,8 11 6 25 14 ZW 1011,1 45 0,0
18.06.2018 20:00:00 17,2 10,3 14 8 25 14 ZW 1011,4 45 0,0
18.06.2018 19:00:00 17,9 9,8 11 6 22 12 ZW 1011,7 45 0,0
18.06.2018 18:00:00 18,3 9,1 11 6 29 16 WZW 1012,0 45 0,0
18.06.2018 17:00:00 19,5 9,4 11 6 29 16 WZW 1012,3 35 0,0
18.06.2018 16:00:00 18,6 9,4 11 6 32 18 WZW 1012,8 40 0,0
18.06.2018 15:00:00 19,3 9,8 11 6 32 18 WZW 1012,8 35 0,0
18.06.2018 14:00:00 16,8 10,2 11 6 25 14 WZW 1013,0 45 0,0
18.06.2018 13:00:00 17,0 10,6 11 6 29 16 WZW 1013,0 40 0,0
18.06.2018 12:00:00 16,3 11,5 14 8 32 18 WZW 1013,0 30 0,0
18.06.2018 11:00:00 15,4 11,2 14 8 32 18 ZW 1013,2 40 0,0
18.06.2018 10:00:00 15,2 11,4 14 8 25 14 WZW 1012,9 35 0,0
18.06.2018 09:00:00 13,3 11,2 11 6 22 12 ZW 1012,9 45 0,0
18.06.2018 08:00:00 13,6 11,8 7 4 22 12 ZW 1012,6 45 0,0
18.06.2018 07:00:00 11,5 11,5 7 4 14 8 Z 1012,8 30 0,0
18.06.2018 06:00:00 8,8 8,8 4 2 14 8 Z 1012,7 12 0,0
18.06.2018 05:00:00 7,6 7,6 4 2 11 6 Z 1012,5 9 0,0
18.06.2018 04:00:00 7,1 7,1 0 0 7 4 N 1012,5 2,2 0,0
18.06.2018 03:00:00 7,1 7,1 0 0 7 4 N 1012,7 0,6 0,0
18.06.2018 02:00:00 7,4 7,4 4 2 7 4 ZZO 1012,6 3,7 0,0
18.06.2018 01:00:00 7,9 7,9 0 0 7 4 N 1012,4 1,1 0,0
18.06.2018 00:00:00 8,9 8,9 4 2 11 6 ZZW 1012,0 6 0,0
17.06.2018 23:00:00 9,5 9,5 0 0 18 10 N 1011,7 2,6 0,1
17.06.2018 22:00:00 12,1 11,0 7 4 32 18 W 1011,6 35 0,0
17.06.2018 21:00:00 13,8 13,6 7 4 18 10 ZZW 1010,6 30 0,0
17.06.2018 20:00:00 15,1 15,1 7 4 11 6 ZZW 1010,2 26 1,0
17.06.2018 19:00:00 15,6 15,4 0 0 11 6 N 1010,0 12 0,0
17.06.2018 18:00:00 15,9 15,7 4 2 7 4 O 1010,0 25 2,0
17.06.2018 17:00:00 13,9 13,7 0 0 14 8 N 1010,7 20 0,1
17.06.2018 16:00:00 13,9 13,6 4 2 14 8 O 1010,9 30 0,1
17.06.2018 15:00:00 12,1 12,1 7 4 18 10 OZO 1011,9 9 7,0
17.06.2018 14:00:00 13,9 13,4 4 2 14 8 Z 1012,3 5 1,0
17.06.2018 13:00:00 16,2 15,4 4 2 7 4 O 1011,8 35 1,0
17.06.2018 12:00:00 15,0 13,4 0 0 14 8 N 1013,6 7 1,0
17.06.2018 11:00:00 17,4 11,9 7 4 14 8 OZO 1013,1 30 0,0
17.06.2018 10:00:00 15,8 11,0 4 2 11 6 OZO 1013,6 40 0,0
17.06.2018 09:00:00 14,8 12,5 4 2 7 4 O 1013,9 45 0,0
17.06.2018 08:00:00 14,1 12,8 0 0 7 4 N 1014,3 45 0,0
17.06.2018 07:00:00 14,2 12,1 0 0 7 4 N 1014,7 40 0,0
17.06.2018 06:00:00 14,3 11,6 4 2 7 4 OZO 1014,8 45 0,0
17.06.2018 05:00:00 14,5 10,9 0 0 11 6 N 1015,0 45 0,0
17.06.2018 04:00:00 14,5 10,9 4 2 11 6 ZO 1014,9 45 0,0
17.06.2018 03:00:00 14,4 10,6 4 2 11 6 OZO 1015,0 45 0,0
17.06.2018 02:00:00 14,2 10,6 4 2 11 6 OZO 1015,1 50 0,0
17.06.2018 01:00:00 13,4 10,2 0 0 7 4 N 1015,5 45 0,0
17.06.2018 00:00:00 13,5 10,1 0 0 7 4 N 1015,9 40 0,0
16.06.2018 23:00:00 14,6 10,4 0 0 7 4 N 1015,9 45 0,0
16.06.2018 22:00:00 15,8 10,1 4 2 7 4 OZO 1016,0 45 0,0
16.06.2018 21:00:00 17,5 9,4 0 0 4 2 N 1016,0 45 0,0
16.06.2018 20:00:00 20,0 10,4 0 0 7 4 N 1015,9 45 0,0
16.06.2018 19:00:00 20,5 6,8 4 2 14 8 ZW 1016,0 45 0,0
16.06.2018 18:00:00 21,1 6,6 4 2 14 8 NNO 1016,2 40 0,0
16.06.2018 17:00:00 19,9 6,6 7 4 18 10 W 1016,5 40 0,0
16.06.2018 16:00:00 20,1 7,1 7 4 22 12 W 1016,6 45 0,0
16.06.2018 15:00:00 20,5 7,1 7 4 18 10 W 1016,7 45 0,0
16.06.2018 14:00:00 19,7 7,1 7 4 18 10 WZW 1017,1 40 0,0
16.06.2018 13:00:00 19,0 5,8 7 4 22 12 ZW 1017,5 45 0,0
16.06.2018 12:00:00 19,3 5,0 11 6 22 12 ZW 1017,3 35 0,0
16.06.2018 11:00:00 17,8 9,2 7 4 18 10 W 1017,3 40 0,0
16.06.2018 10:00:00 17,9 10,3 7 4 18 10 ZZW 1017,3 40 0,0
16.06.2018 09:00:00 15,8 10,8 4 2 14 8 W 1017,6 35 0,0

tt = temperatuur
td = dauwpunt
ff = windsnelheid
fx = windstoten
dd = windrichting
ppp = luchtdruk
vv = zicht
rr = neerslag

Weerstations in de omgeving